����,���ϕ���(m/s),���ϕ���,�ő�u�ԕ���(m/s),�ő啗��������,�C��(��),���x(%),10���Ԉړ��ώZ�J��(mm),1���Ԉړ��ώZ�J��(mm),���J��(mm),�݌v�J��(mm)
2023-12-18T00:00:00+09:00,1.2,���쐼,2.7,���쐼,0,68.1,0,0,0,0
2023-12-18T00:01:00+09:00,1.2,��,2.7,���쐼,0,68,0,0,0,0
2023-12-18T00:02:00+09:00,1.4,��,2.7,���쐼,0,68.1,0,0,0,0
2023-12-18T00:03:00+09:00,1.5,��,2.7,���쐼,-0.1,68.4,0,0,0,0
2023-12-18T00:04:00+09:00,1.5,��,2.7,���쐼,-0.1,68.9,0,0,0,0
2023-12-18T00:05:00+09:00,1.6,��,2.7,���쐼,-0.1,68.9,0,0,0,0
2023-12-18T00:06:00+09:00,1.7,��,3.3,���k��,0,69.2,0,0,0,0
2023-12-18T00:07:00+09:00,1.7,��,3.7,��,-0.1,67.2,0,0,0,0
2023-12-18T00:08:00+09:00,1.7,��,3.7,��,-0.2,67.8,0,0,0,0
2023-12-18T00:09:00+09:00,1.7,��,3.7,��,-0.2,67.9,0,0,0,0
2023-12-18T00:10:00+09:00,1.7,��,3.7,��,-0.1,69,0,0,0,0
2023-12-18T00:11:00+09:00,1.7,��,3.7,��,0,68.6,0,0,0,0
2023-12-18T00:12:00+09:00,1.7,��,3.7,��,0,68.5,0,0,0,0
2023-12-18T00:13:00+09:00,1.5,��,3.7,��,0,69.1,0,0,0,0
2023-12-18T00:14:00+09:00,1.4,��,3.7,��,0,69.2,0,0,0,0
2023-12-18T00:15:00+09:00,1.3,��,3.7,��,0.1,68.5,0,0,0,0
2023-12-18T00:16:00+09:00,1.1,��,3.7,��,0,68.5,0,0,0,0
2023-12-18T00:17:00+09:00,0.9,��,3.5,���k��,0,68.3,0,0,0,0
2023-12-18T00:18:00+09:00,0.7,��,2.3,��,0,68.2,0,0,0,0
2023-12-18T00:19:00+09:00,0.6,��,2.3,��,0,68.1,0,0,0,0
2023-12-18T00:20:00+09:00,0.6,��,2.2,��,0,68.1,0,0,0,0
2023-12-18T00:21:00+09:00,0.4,��,1.6,���k��,-0.1,68.1,0,0,0,0
2023-12-18T00:22:00+09:00,0.5,���k��,1.8,�k��,-0.3,68.4,0,0,0,0
2023-12-18T00:23:00+09:00,0.6,�k��,1.9,�쓌,-0.5,69.1,0,0,0,0
2023-12-18T00:24:00+09:00,0.7,�k��,1.9,�쓌,-0.6,69.6,0,0,0,0
2023-12-18T00:25:00+09:00,0.7,���쓌,1.9,�쓌,-0.6,70.6,0,0,0,0
2023-12-18T00:26:00+09:00,0.8,�쓌,1.9,�쓌,-0.5,71.2,0,0,0,0
2023-12-18T00:27:00+09:00,0.8,�쓌,1.9,�쓌,-0.6,71.2,0,0,0,0
2023-12-18T00:28:00+09:00,0.8,�쓌,1.9,�쓌,-0.5,71.2,0,0,0,0
2023-12-18T00:29:00+09:00,0.9,�쓌,1.9,�쓌,-0.5,71.3,0,0,0,0
2023-12-18T00:30:00+09:00,0.8,�쓌,1.9,�쓌,-0.6,70.9,0,0,0,0
2023-12-18T00:31:00+09:00,0.8,�쓌,1.9,�쓌,-0.7,71,0,0,0,0
2023-12-18T00:32:00+09:00,0.7,�쓌,1.9,�쓌,-0.6,71,0,0,0,0
2023-12-18T00:33:00+09:00,0.6,�쓌,1.9,��,-0.6,70.9,0,0,0,0
2023-12-18T00:34:00+09:00,0.5,�쓌,1.9,��,-0.6,70.8,0,0,0,0
2023-12-18T00:35:00+09:00,0.5,�쓌,1.6,��쓌,-0.4,70.6,0,0,0,0
2023-12-18T00:36:00+09:00,0.5,��쓌,1.8,��,-0.3,70.2,0,0,0,0
2023-12-18T00:37:00+09:00,0.5,��쓌,2.1,��,-0.3,70.2,0,0,0,0
2023-12-18T00:38:00+09:00,0.6,��,2.1,��,-0.3,70.2,0,0,0,0
2023-12-18T00:39:00+09:00,0.6,��,2.1,��,-0.3,70,0,0,0,0
2023-12-18T00:40:00+09:00,0.6,��쐼,2.1,��,-0.2,70.3,0,0,0,0
2023-12-18T00:41:00+09:00,0.6,�쐼,2.1,��,-0.1,69.7,0,0,0,0
2023-12-18T00:42:00+09:00,0.6,�쐼,2.1,��,-0.2,69.5,0,0,0,0
2023-12-18T00:43:00+09:00,0.7,���쐼,2.1,��,-0.3,69.3,0,0,0,0
2023-12-18T00:44:00+09:00,0.7,���쐼,2.1,��,-0.4,69.3,0,0,0,0
2023-12-18T00:45:00+09:00,0.7,�쐼,2.1,��,-0.5,70.1,0,0,0,0
2023-12-18T00:46:00+09:00,0.7,�쐼,2.1,��,-0.5,70.4,0,0,0,0
2023-12-18T00:47:00+09:00,0.7,�쓌,1.7,��,-0.6,70.8,0,0,0,0
2023-12-18T00:48:00+09:00,0.7,�k��,1.7,��,-0.5,69.6,0,0,0,0
2023-12-18T00:49:00+09:00,0.6,�k��,1.7,��,-0.5,69.4,0,0,0,0
2023-12-18T00:50:00+09:00,0.6,�k��,1.4,���쓌,-0.6,69.5,0,0,0,0
2023-12-18T00:51:00+09:00,0.5,�k��,1.4,���쓌,-0.5,69.6,0,0,0,0
2023-12-18T00:52:00+09:00,0.5,�k��,1.4,���쓌,-0.5,69.6,0,0,0,0
2023-12-18T00:53:00+09:00,0.5,���k��,1.4,���쓌,-0.5,69.9,0,0,0,0
2023-12-18T00:54:00+09:00,0.5,�k��,1.5,���쓌,-0.6,70.4,0,0,0,0
2023-12-18T00:55:00+09:00,0.5,�k��,1.5,���쓌,-0.6,70.7,0,0,0,0
2023-12-18T00:56:00+09:00,0.5,���k��,1.5,���쓌,-0.5,71.5,0,0,0,0
2023-12-18T00:57:00+09:00,0.5,���k��,1.5,���쓌,-0.5,72,0,0,0,0
2023-12-18T00:58:00+09:00,0.5,��,1.5,���쓌,-0.7,72,0,0,0,0
2023-12-18T00:59:00+09:00,0.6,��,1.5,���쓌,-0.7,72.9,0,0,0,0
2023-12-18T01:00:00+09:00,0.7,��,1.5,���쓌,-0.8,73.1,0,0,0,0
2023-12-18T01:01:00+09:00,0.8,���쓌,1.5,���쓌,-0.8,72.9,0,0,0,0
2023-12-18T01:02:00+09:00,0.8,�쓌,1.5,���쓌,-0.7,73.1,0,0,0,0
2023-12-18T01:03:00+09:00,0.8,�쓌,1.5,���쓌,-0.7,73.2,0,0,0,0
2023-12-18T01:04:00+09:00,0.7,�쓌,1.3,��쐼,-0.6,73.1,0,0,0,0
2023-12-18T01:05:00+09:00,0.7,�쓌,1.3,��쐼,-0.6,73,0,0,0,0
2023-12-18T01:06:00+09:00,0.6,�쓌,1.3,��쐼,-0.6,72.4,0,0,0,0
2023-12-18T01:07:00+09:00,0.7,�쓌,1.4,���쓌,-0.5,72,0,0,0,0
2023-12-18T01:08:00+09:00,0.7,�쓌,1.5,���쓌,-0.6,72.2,0,0,0,0
2023-12-18T01:09:00+09:00,0.8,�쓌,1.8,�쓌,-0.7,72.5,0,0,0,0
2023-12-18T01:10:00+09:00,0.8,���쓌,1.9,���쓌,-0.8,72.9,0,0,0,0
2023-12-18T01:11:00+09:00,0.8,���쓌,1.9,���쓌,-0.8,73.9,0,0,0,0
2023-12-18T01:12:00+09:00,0.8,���쓌,1.9,���쓌,-0.7,74.4,0,0,0,0
2023-12-18T01:13:00+09:00,0.8,���쓌,1.9,���쓌,-0.8,74.4,0,0,0,0
2023-12-18T01:14:00+09:00,0.9,���쓌,1.9,���쓌,-0.3,74.6,0,0,0,0
2023-12-18T01:15:00+09:00,,,,,,,,,,
2023-12-18T01:16:00+09:00,1,�쓌,1.9,���쓌,-0.6,72.7,0,0,0,0
2023-12-18T01:17:00+09:00,1,�쓌,1.9,���쓌,-0.6,72.5,0,0,0,0
2023-12-18T01:18:00+09:00,1,�쓌,1.9,���쓌,-0.6,71.9,0,0,0,0
2023-12-18T01:19:00+09:00,0.9,�쓌,1.9,���쓌,-0.5,71.3,0,0,0,0
2023-12-18T01:20:00+09:00,0.8,�쓌,1.6,���쓌,-0.4,71.6,0,0,0,0
2023-12-18T01:21:00+09:00,0.8,�쓌,1.6,���쓌,-0.5,71.8,0,0,0,0
2023-12-18T01:22:00+09:00,0.7,�쓌,1.6,���쓌,-0.5,71.4,0,0,0,0
2023-12-18T01:23:00+09:00,0.6,���쓌,1.6,���쓌,-0.5,71.5,0,0,0,0
2023-12-18T01:24:00+09:00,0.6,���쓌,1.6,���쓌,-0.5,71.3,0,0,0,0
2023-12-18T01:25:00+09:00,0.6,�쓌,1.6,���쓌,-0.6,70.7,0,0,0,0
2023-12-18T01:26:00+09:00,0.6,�쓌,1.6,���쓌,-0.6,70.9,0,0,0,0
2023-12-18T01:27:00+09:00,0.6,��쓌,1.6,���쓌,-0.6,71.3,0,0,0,0
2023-12-18T01:28:00+09:00,0.6,��쓌,1.6,��쐼,-0.6,71.6,0,0,0,0
2023-12-18T01:29:00+09:00,0.6,��쓌,1.6,��쐼,-0.6,72.1,0,0,0,0
2023-12-18T01:30:00+09:00,0.6,��쓌,1.6,��쐼,-0.6,72.9,0,0,0,0
2023-12-18T01:31:00+09:00,0.7,��,1.6,��쐼,-0.6,73.1,0,0,0,0
2023-12-18T01:32:00+09:00,0.7,��,1.6,��쐼,-0.5,71.7,0,0,0,0
2023-12-18T01:33:00+09:00,0.8,��,1.6,��쐼,-0.5,72.4,0,0,0,0
2023-12-18T01:34:00+09:00,0.9,��쐼,1.8,���k��,-0.6,72.2,0,0,0,0
2023-12-18T01:35:00+09:00,0.9,�쐼,2.9,���k��,-0.6,71.2,0,0,0,0
2023-12-18T01:36:00+09:00,1,�쐼,3.3,���k��,-0.5,70.9,0,0,0,0
2023-12-18T01:37:00+09:00,1,���쐼,3.3,���k��,-0.6,71.6,0,0,0,0
2023-12-18T01:38:00+09:00,1,��,3.3,���k��,-0.5,71.5,0,0,0,0
2023-12-18T01:39:00+09:00,1.1,��,3.3,���k��,-0.4,70.6,0,0,0,0
2023-12-18T01:40:00+09:00,1,���k��,3.3,���k��,-0.4,69.5,0,0,0,0
2023-12-18T01:41:00+09:00,1,���k��,3.3,���k��,-0.1,70.2,0,0,0,0
2023-12-18T01:42:00+09:00,1,��,3.3,���k��,-0.2,70,0,0,0,0
2023-12-18T01:43:00+09:00,0.9,��,3.3,���k��,-0.3,70.1,0,0,0,0
2023-12-18T01:44:00+09:00,0.8,��,3.3,���k��,-0.3,71.2,0,0,0,0
2023-12-18T01:45:00+09:00,0.7,���쐼,3.3,���k��,-0.1,71.5,0,0,0,0
2023-12-18T01:46:00+09:00,0.5,���쐼,1.8,���k��,-0.4,71.8,0,0,0,0
2023-12-18T01:47:00+09:00,0.5,�쐼,1.8,���k��,-0.5,72.5,0,0,0,0
2023-12-18T01:48:00+09:00,0.4,��,1.8,���k��,-0.4,72.5,0,0,0,0
2023-12-18T01:49:00+09:00,0.3,��쓌,1.3,���쐼,-0.5,72.6,0,0,0,0
2023-12-18T01:50:00+09:00,0.3,�쓌,1.2,�쓌,-0.5,72.8,0,0,0,0
2023-12-18T01:51:00+09:00,0.2,�É�,1.2,�쓌,-0.6,72.9,0,0,0,0
2023-12-18T01:52:00+09:00,0.2,�É�,1.2,�쓌,-0.6,73.3,0,0,0,0
2023-12-18T01:53:00+09:00,0.2,�É�,1.2,�쓌,-0.5,73.6,0,0,0,0
2023-12-18T01:54:00+09:00,0.2,�É�,0.9,�k�k��,-0.6,73.1,0,0,0,0
2023-12-18T01:55:00+09:00,0.2,�É�,1.1,���쐼,-0.6,71.9,0,0,0,0
2023-12-18T01:56:00+09:00,0.3,���k��,1.3,���쐼,-0.6,72.6,0,0,0,0
2023-12-18T01:57:00+09:00,0.5,�k�k��,2.4,��,-0.5,71.7,0,0,0,0
2023-12-18T01:58:00+09:00,0.6,���k��,2.4,��,-0.5,71.8,0,0,0,0
2023-12-18T01:59:00+09:00,0.6,�k��,2.4,��,-0.6,72.7,0,0,0,0
2023-12-18T02:00:00+09:00,0.7,��,2.4,��,-0.5,73.3,0,0,0,0
2023-12-18T02:01:00+09:00,0.8,�쐼,2.4,��,-0.6,73.4,0,0,0,0
2023-12-18T02:02:00+09:00,0.9,�쐼,2.4,��,-0.8,74.3,0,0,0,0
2023-12-18T02:03:00+09:00,0.9,��,2.4,��,-0.8,74.4,0,0,0,0
2023-12-18T02:04:00+09:00,0.9,��쓌,2.4,��,-0.8,74.5,0,0,0,0
2023-12-18T02:05:00+09:00,1,�쓌,2.4,��,-0.8,74.8,0,0,0,0
2023-12-18T02:06:00+09:00,1,�쓌,2.4,��,-0.8,74.1,0,0,0,0
2023-12-18T02:07:00+09:00,1,�쓌,2.1,���k��,-0.7,73.1,0,0,0,0
2023-12-18T02:08:00+09:00,1,�쓌,1.6,�쓌,-0.7,72.7,0,0,0,0
2023-12-18T02:09:00+09:00,0.9,���쓌,1.6,�쓌,-0.6,73.7,0,0,0,0
2023-12-18T02:10:00+09:00,0.9,���쓌,1.6,�쓌,-0.6,73.1,0,0,0,0
2023-12-18T02:11:00+09:00,0.8,���쓌,1.6,�쓌,-0.6,73.6,0,0,0,0
2023-12-18T02:12:00+09:00,0.8,���쓌,1.6,�쓌,-0.5,74,0,0,0,0
2023-12-18T02:13:00+09:00,0.8,���쓌,1.6,�쓌,-0.5,74,0,0,0,0
2023-12-18T02:14:00+09:00,0.8,���쓌,1.6,�쓌,-0.5,73.8,0,0,0,0
2023-12-18T02:15:00+09:00,0.7,�쓌,1.6,�쓌,-0.7,73.4,0,0,0,0
2023-12-18T02:16:00+09:00,0.6,�쓌,1.4,�쓌,-0.7,73.5,0,0,0,0
2023-12-18T02:17:00+09:00,0.6,�쓌,1.1,��,-0.6,74.5,0,0,0,0
2023-12-18T02:18:00+09:00,0.6,�쓌,1.6,���k��,-0.7,74.2,0,0,0,0
2023-12-18T02:19:00+09:00,0.6,��쓌,1.8,�k,-0.6,72.5,0,0,0,0
2023-12-18T02:20:00+09:00,0.7,��쓌,2.6,�k��,-0.6,72.4,0,0,0,0
2023-12-18T02:21:00+09:00,0.8,��,2.6,�k��,-0.6,72.3,0,0,0,0
2023-12-18T02:22:00+09:00,0.8,�쐼,2.6,�k��,-0.6,72.2,0,0,0,0
2023-12-18T02:23:00+09:00,0.8,���쐼,2.6,�k��,-0.6,72.2,0,0,0,0
2023-12-18T02:24:00+09:00,0.9,���쐼,2.6,�k��,-0.6,71.9,0,0,0,0
2023-12-18T02:25:00+09:00,0.9,��,2.6,�k��,-0.6,72.3,0,0,0,0
2023-12-18T02:26:00+09:00,1,��,2.8,��,-0.6,72.3,0,0,0,0
2023-12-18T02:27:00+09:00,1.2,��,3,��,-0.5,72.1,0,0,0,0
2023-12-18T02:28:00+09:00,1.3,��,3,��,-0.5,72.1,0,0,0,0
2023-12-18T02:29:00+09:00,1.5,��,3.2,���쐼,-0.5,71.7,0,0,0,0
2023-12-18T02:30:00+09:00,1.5,��,3.2,���쐼,-0.4,71.8,0,0,0,0
2023-12-18T02:31:00+09:00,1.6,��,3.3,���k��,-0.4,71.5,0,0,0,0
2023-12-18T02:32:00+09:00,1.6,��,3.3,���k��,-0.4,70.7,0,0,0,0
2023-12-18T02:33:00+09:00,1.7,��,3.3,���k��,-0.4,71.2,0,0,0,0
2023-12-18T02:34:00+09:00,1.8,��,3.3,���k��,-0.4,71.1,0,0,0,0
2023-12-18T02:35:00+09:00,1.8,��,3.3,���k��,-0.4,71.2,0,0,0,0
2023-12-18T02:36:00+09:00,1.8,��,3.3,���k��,-0.4,71.4,0,0,0,0
2023-12-18T02:37:00+09:00,1.8,��,3.3,���k��,-0.4,71.1,0,0,0,0
2023-12-18T02:38:00+09:00,1.9,��,3.9,���쐼,-0.3,71,0,0,0,0
2023-12-18T02:39:00+09:00,1.9,��,3.9,���쐼,-0.2,70.3,0,0,0,0
2023-12-18T02:40:00+09:00,1.9,��,3.9,���쐼,-0.2,69.7,0,0,0,0
2023-12-18T02:41:00+09:00,1.8,��,3.9,���쐼,-0.1,70,0,0,0,0
2023-12-18T02:42:00+09:00,1.8,��,3.9,���쐼,-0.1,70,0,0,0,0
2023-12-18T02:43:00+09:00,1.9,��,3.9,���쐼,-0.3,69.2,0,0,0,0
2023-12-18T02:44:00+09:00,2,��,3.9,���쐼,-0.4,68.5,0,0,0,0
2023-12-18T02:45:00+09:00,2,��,3.9,���쐼,-0.4,69.5,0,0,0,0
2023-12-18T02:46:00+09:00,2.1,��,4.4,���쐼,-0.3,69.7,0,0,0,0
2023-12-18T02:47:00+09:00,2.1,��,4.4,���쐼,-0.2,69,0,0,0,0
2023-12-18T02:48:00+09:00,2.2,��,4.4,���쐼,0,68.4,0,0,0,0
2023-12-18T02:49:00+09:00,2.1,��,4.4,���쐼,0,68,0,0,0,0
2023-12-18T02:50:00+09:00,2.2,��,4.4,���쐼,0,68.8,0,0,0,0
2023-12-18T02:51:00+09:00,2.4,��,4.5,��,0,69.5,0,0,0,0
2023-12-18T02:52:00+09:00,2.6,��,4.5,��,0,68.4,0,0,0,0
2023-12-18T02:53:00+09:00,2.6,���쐼,4.5,��,0,69.6,0,0,0,0
2023-12-18T02:54:00+09:00,2.7,��,5,���k��,-0.1,69.3,0,0,0,0
2023-12-18T02:55:00+09:00,3,��,5.8,���k��,-0.2,67.6,0,0,0,0
2023-12-18T02:56:00+09:00,3.1,��,5.8,���k��,-0.2,66.9,0,0,0,0
2023-12-18T02:57:00+09:00,3.1,��,5.8,���k��,-0.3,68,0,0,0,0
2023-12-18T02:58:00+09:00,3.1,��,5.8,���k��,-0.4,68.6,0,0,0,0
2023-12-18T02:59:00+09:00,3.3,���k��,5.8,���k��,-0.4,68.1,0,0,0,0
2023-12-18T03:00:00+09:00,3.4,���k��,5.8,���k��,-0.4,68.6,0,0,0,0
2023-12-18T03:01:00+09:00,3.4,���k��,6.1,��,-0.5,69.2,0,0,0,0
2023-12-18T03:02:00+09:00,3.3,���k��,6.1,��,-0.4,69.6,0,0,0,0
2023-12-18T03:03:00+09:00,3.3,���k��,6.1,��,-0.4,70,0,0,0,0
2023-12-18T03:04:00+09:00,3.3,���k��,6.1,��,-0.3,69.9,0,0,0,0
2023-12-18T03:05:00+09:00,3,���k��,6.1,��,-0.2,70.4,0,0,0,0
2023-12-18T03:06:00+09:00,2.9,��,6.1,��,-0.1,70.2,0,0,0,0
2023-12-18T03:07:00+09:00,2.9,��,6.1,��,-0.1,69.1,0,0,0,0
2023-12-18T03:08:00+09:00,2.8,��,6.1,��,-0.2,68.4,0,0,0,0
2023-12-18T03:09:00+09:00,2.7,��,6.1,��,-0.3,68.4,0,0,0,0
2023-12-18T03:10:00+09:00,2.8,��,6.1,��,-0.3,67.6,0,0,0,0
2023-12-18T03:11:00+09:00,2.8,��,4.7,���k��,-0.3,67.5,0,0,0,0
2023-12-18T03:12:00+09:00,2.9,���k��,5,�k��,-0.3,67.7,0,0,0,0
2023-12-18T03:13:00+09:00,3,���k��,5,�k��,-0.3,68.4,0,0,0,0
2023-12-18T03:14:00+09:00,3,���k��,5,�k��,-0.3,69.1,0,0,0,0
2023-12-18T03:15:00+09:00,3.1,���k��,5,�k��,-0.3,70,0,0,0,0
2023-12-18T03:16:00+09:00,3.1,���k��,5,�k��,-0.2,70.7,0,0,0,0
2023-12-18T03:17:00+09:00,3.2,���k��,5.1,��,-0.3,70.4,0,0,0,0
2023-12-18T03:18:00+09:00,3.4,���k��,5.1,��,-0.4,70.3,0,0,0,0
2023-12-18T03:19:00+09:00,3.4,���k��,5.1,��,-0.3,70.9,0,0,0,0
2023-12-18T03:20:00+09:00,3.3,��,5.1,��,-0.3,72.2,0,0,0,0
2023-12-18T03:21:00+09:00,3.4,��,5.5,��,-0.2,71.2,0,0,0,0
2023-12-18T03:22:00+09:00,3.3,��,5.5,��,-0.3,70,0,0,0,0
2023-12-18T03:23:00+09:00,3.2,��,5.5,��,-0.3,68.8,0,0,0,0
2023-12-18T03:24:00+09:00,3.2,��,5.5,��,-0.3,68.1,0,0,0,0
2023-12-18T03:25:00+09:00,3.2,���k��,5.5,��,-0.4,68.6,0,0,0,0
2023-12-18T03:26:00+09:00,3.2,���k��,5.5,��,-0.4,69.3,0,0,0,0
2023-12-18T03:27:00+09:00,3.1,���k��,5.5,��,-0.4,69.5,0,0,0,0
2023-12-18T03:28:00+09:00,3.1,���k��,5.5,��,-0.4,70.1,0,0,0,0
2023-12-18T03:29:00+09:00,2.9,���k��,5.5,��,-0.3,70.9,0,0,0,0
2023-12-18T03:30:00+09:00,2.9,���k��,5.5,��,-0.3,69.8,0,0,0,0
2023-12-18T03:31:00+09:00,2.8,���k��,4.7,���k��,-0.2,68.3,0,0,0,0
2023-12-18T03:32:00+09:00,2.7,���k��,4.7,���k��,-0.3,67.8,0,0,0,0
2023-12-18T03:33:00+09:00,2.5,���k��,4.7,���k��,-0.4,68.4,0,0,0,0
2023-12-18T03:34:00+09:00,2.4,���k��,4.7,���k��,-0.4,68.6,0,0,0,0
2023-12-18T03:35:00+09:00,2.4,���k��,4.7,���k��,-0.4,68.5,0,0,0,0
2023-12-18T03:36:00+09:00,2.4,���k��,4.7,���k��,-0.4,68.4,0,0,0,0
2023-12-18T03:37:00+09:00,2.3,���k��,4.7,���k��,-0.4,68.6,0,0,0,0
2023-12-18T03:38:00+09:00,,,,,,,,,,
2023-12-18T03:39:00+09:00,2.1,���k��,4.7,���k��,-0.4,68.6,0,0,0,0
2023-12-18T03:40:00+09:00,1.9,���k��,4.1,�k��,-0.4,68.7,0,0,0,0
2023-12-18T03:41:00+09:00,1.8,���k��,3.4,�k��,-0.4,68.9,0,0,0,0
2023-12-18T03:42:00+09:00,1.8,���k��,3.4,�k��,-0.4,69.1,0,0,0,0
2023-12-18T03:43:00+09:00,1.9,���k��,3.5,��,-0.4,69.7,0,0,0,0
2023-12-18T03:44:00+09:00,1.9,���k��,3.5,��,-0.4,69.3,0,0,0,0
2023-12-18T03:45:00+09:00,1.8,��,3.8,�쐼,-0.4,69.6,0,0,0,0
2023-12-18T03:46:00+09:00,1.8,��,3.8,�쐼,-0.3,70.3,0,0,0,0
2023-12-18T03:47:00+09:00,1.9,��,3.8,�쐼,-0.3,70.5,0,0,0,0
2023-12-18T03:48:00+09:00,2,��,3.8,�쐼,-0.3,70.3,0,0,0,0
2023-12-18T03:49:00+09:00,2,��,3.8,�쐼,-0.3,69.7,0,0,0,0
2023-12-18T03:50:00+09:00,2.1,��,3.8,�쐼,-0.3,69.1,0,0,0,0
2023-12-18T03:51:00+09:00,2.2,��,4.2,�쐼,-0.2,68.7,0,0,0,0
2023-12-18T03:52:00+09:00,2.3,��,4.2,�쐼,-0.2,68.8,0,0,0,0
2023-12-18T03:53:00+09:00,2.4,��,4.2,�쐼,-0.1,68.9,0,0,0,0
2023-12-18T03:54:00+09:00,2.5,��,4.2,�쐼,0,68.6,0,0,0,0
2023-12-18T03:55:00+09:00,2.6,��,4.2,�쐼,0,67.6,0,0,0,0
2023-12-18T03:56:00+09:00,2.6,��,4.2,�쐼,0,67.6,0,0,0,0
2023-12-18T03:57:00+09:00,2.5,��,4.2,�쐼,-0.1,67.3,0,0,0,0
2023-12-18T03:58:00+09:00,2.5,��,4.2,�쐼,-0.1,67.3,0,0,0,0
2023-12-18T03:59:00+09:00,2.5,��,4.2,�쐼,-0.1,67.9,0,0,0,0
2023-12-18T04:00:00+09:00,2.4,��,4.2,�쐼,0,68.7,0,0,0,0
2023-12-18T04:01:00+09:00,2.3,��,4.1,�쐼,0,68.3,0,0,0,0
2023-12-18T04:02:00+09:00,2.2,��,4.1,�쐼,0,68,0,0,0,0
2023-12-18T04:03:00+09:00,2.1,��,3.7,��,-0.1,68.1,0,0,0,0
2023-12-18T04:04:00+09:00,1.9,��,3.2,���k��,-0.1,68.2,0,0,0,0
2023-12-18T04:05:00+09:00,1.7,��,3.2,���k��,-0.1,68.5,0,0,0,0
2023-12-18T04:06:00+09:00,1.7,��,3.2,���k��,-0.2,69.9,0,0,0,0
2023-12-18T04:07:00+09:00,1.6,���쐼,3.2,���k��,-0.2,69.9,0,0,0,0
2023-12-18T04:08:00+09:00,1.4,���쐼,3,��,-0.1,69.4,0,0,0,0
2023-12-18T04:09:00+09:00,1.3,���쐼,3,��,-0.2,70.7,0,0,0,0
2023-12-18T04:10:00+09:00,1.2,���쐼,3,��,-0.2,71.2,0,0,0,0
2023-12-18T04:11:00+09:00,1.1,�쐼,2.7,��,-0.3,71.6,0,0,0,0
2023-12-18T04:12:00+09:00,1,��쐼,2.2,��,-0.4,72.6,0,0,0,0
2023-12-18T04:13:00+09:00,1,��,1.8,���쓌,-0.4,72.7,0,0,0,0
2023-12-18T04:14:00+09:00,1,�쓌,1.8,���쓌,-0.3,72.7,0,0,0,0
2023-12-18T04:15:00+09:00,0.9,���쓌,1.8,���쓌,-0.2,72.9,0,0,0,0
2023-12-18T04:16:00+09:00,0.9,���쓌,1.8,���쓌,-0.2,72.3,0,0,0,0
2023-12-18T04:17:00+09:00,0.8,���쓌,1.8,���쓌,-0.3,72,0,0,0,0
2023-12-18T04:18:00+09:00,0.8,���쓌,1.8,���쓌,-0.3,72.1,0,0,0,0
2023-12-18T04:19:00+09:00,1,���쓌,2.9,��,-0.3,72.2,0,0,0,0
2023-12-18T04:20:00+09:00,1,���쓌,2.9,��,-0.2,71.2,0,0,0,0
2023-12-18T04:21:00+09:00,1.1,���쓌,3.8,���k��,-0.3,70.3,0,0,0,0
2023-12-18T04:22:00+09:00,1.2,���쓌,3.8,���k��,-0.4,70.6,0,0,0,0
2023-12-18T04:23:00+09:00,1.4,�쐼,3.8,���k��,-0.3,70.1,0,0,0,0
2023-12-18T04:24:00+09:00,1.6,���쐼,4.7,��,-0.4,70.7,0,0,0,0
2023-12-18T04:25:00+09:00,1.9,��,4.7,��,-0.3,70.5,0,0,0,0
2023-12-18T04:26:00+09:00,2.2,��,4.7,��,-0.3,71.1,0,0,0,0
2023-12-18T04:27:00+09:00,2.4,��,4.7,��,-0.3,72,0,0,0,0
2023-12-18T04:28:00+09:00,2.5,��,4.7,��,-0.3,72.7,0,0,0,0
2023-12-18T04:29:00+09:00,2.5,��,4.7,��,-0.2,72,0,0,0,0
2023-12-18T04:30:00+09:00,2.6,��,4.7,��,-0.1,71.1,0,0,0,0
2023-12-18T04:31:00+09:00,2.8,��,4.8,���쐼,0,69.7,0,0,0,0
2023-12-18T04:32:00+09:00,3,��,4.8,���쐼,0.1,69.2,0,0,0,0
2023-12-18T04:33:00+09:00,3.1,��,5.3,��,0.2,67.9,0,0,0,0
2023-12-18T04:34:00+09:00,3.2,��,5.8,���쐼,0.2,66.9,0,0,0,0
2023-12-18T04:35:00+09:00,3.1,���쐼,5.8,���쐼,0.2,66.4,0,0,0,0
2023-12-18T04:36:00+09:00,3,���쐼,5.8,���쐼,0.1,67.9,0,0,0,0
2023-12-18T04:37:00+09:00,,,,,,,,,,
2023-12-18T04:38:00+09:00,3.1,���쐼,5.8,���쐼,0.2,67.6,0,0,0,0
2023-12-18T04:39:00+09:00,3.2,��,5.8,���쐼,0,69,0,0,0,0
2023-12-18T04:40:00+09:00,3.2,��,5.8,���쐼,-0.3,70.4,0,0,0,0
2023-12-18T04:41:00+09:00,3.3,��,5.8,���쐼,0,68.4,0,0,0,0
2023-12-18T04:42:00+09:00,3.3,��,5.8,���쐼,0,67,0,0,0,0
2023-12-18T04:43:00+09:00,3.2,��,5.8,���쐼,0,67.6,0,0,0,0
2023-12-18T04:44:00+09:00,3,��,5.3,���쐼,-0.1,69.7,0,0,0,0
2023-12-18T04:45:00+09:00,3,��,5.3,���쐼,-0.1,69.6,0,0,0,0
2023-12-18T04:46:00+09:00,3.1,��,5.3,���쐼,-0.1,70.1,0,0,0,0
2023-12-18T04:47:00+09:00,3.2,��,5.3,���쐼,-0.1,70.2,0,0,0,0
2023-12-18T04:48:00+09:00,3.1,��,5.3,���쐼,0,69.1,0,0,0,0
2023-12-18T04:49:00+09:00,3,��,5.3,���쐼,0,69.5,0,0,0,0
2023-12-18T04:50:00+09:00,3,��,5.3,���쐼,0,68.9,0,0,0,0
2023-12-18T04:51:00+09:00,2.8,��,5.1,��,0,68,0,0,0,0
2023-12-18T04:52:00+09:00,2.6,��,5.1,��,0,68.8,0,0,0,0
2023-12-18T04:53:00+09:00,2.5,��,4.7,��,0,69.2,0,0,0,0
2023-12-18T04:54:00+09:00,2.4,��,4.7,��,0.1,67.9,0,0,0,0
2023-12-18T04:55:00+09:00,2.2,��,4.7,��,0.2,67.7,0,0,0,0
2023-12-18T04:56:00+09:00,2,��,4.7,��,0,68.1,0,0,0,0
2023-12-18T04:57:00+09:00,1.7,��,4.1,��,0.1,68.7,0,0,0,0
2023-12-18T04:58:00+09:00,1.7,��,4.1,��,0,68.7,0,0,0,0
2023-12-18T04:59:00+09:00,1.7,���쐼,4.1,��,0,68.7,0,0,0,0
2023-12-18T05:00:00+09:00,1.4,���쐼,3.3,���쐼,0.1,68.9,0,0,0,0
2023-12-18T05:01:00+09:00,1.4,��,3.3,���쐼,0,68.7,0,0,0,0
2023-12-18T05:02:00+09:00,1.4,��,3.3,���쐼,0,69.1,0,0,0,0
2023-12-18T05:03:00+09:00,1.3,��,3.1,��,0,69.6,0,0,0,0
2023-12-18T05:04:00+09:00,1.2,��,3.1,��,0,70.2,0,0,0,0
2023-12-18T05:05:00+09:00,1.1,��,3.1,��,0,70.8,0,0,0,0
2023-12-18T05:06:00+09:00,1.1,��,3.1,��,0,70.7,0,0,0,0
2023-12-18T05:07:00+09:00,1.1,���쐼,3.1,��,0,71,0,0,0,0
2023-12-18T05:08:00+09:00,0.9,���쐼,2.4,��,-0.2,70.8,0,0,0,0
2023-12-18T05:09:00+09:00,0.8,���쐼,2.4,��,-0.2,71.2,0,0,0,0
2023-12-18T05:10:00+09:00,0.8,���쐼,2.4,��,-0.2,70.6,0,0,0,0
2023-12-18T05:11:00+09:00,0.8,���쐼,2.4,��,-0.2,70.5,0,0,0,0
2023-12-18T05:12:00+09:00,0.7,���쐼,2.4,��,-0.1,71,0,0,0,0
2023-12-18T05:13:00+09:00,0.7,���쐼,2.3,���쐼,-0.1,71,0,0,0,0
2023-12-18T05:14:00+09:00,0.9,���쐼,2.9,�쐼,0,70.9,0,0,0,0
2023-12-18T05:15:00+09:00,1,���쐼,3.5,��,-0.1,71,0,0,0,0
2023-12-18T05:16:00+09:00,1.2,���쐼,3.5,��,-0.1,69.9,0,0,0,0
2023-12-18T05:17:00+09:00,1.5,���쐼,4.1,��,-0.2,69.7,0,0,0,0
2023-12-18T05:18:00+09:00,1.7,��,4.1,��,-0.2,70.9,0,0,0,0
2023-12-18T05:19:00+09:00,2,��,4.1,��,-0.2,71.7,0,0,0,0
2023-12-18T05:20:00+09:00,2.1,���쐼,4.1,��,-0.2,72,0,0,0,0
2023-12-18T05:21:00+09:00,,,,,,,,,,
2023-12-18T05:22:00+09:00,2.2,���쐼,4.1,��,-0.2,73.4,0,0,0,0
2023-12-18T05:23:00+09:00,2.2,��,4.1,��,-0.3,73.6,0,0,0,0
2023-12-18T05:24:00+09:00,2.2,��,4.1,��,-0.2,73.8,0,0,0,0
2023-12-18T05:25:00+09:00,2.3,��,4.1,��,-0.2,74,0,0,0,0
2023-12-18T05:26:00+09:00,2.3,��,4.1,��,0,72.6,0,0,0,0
2023-12-18T05:27:00+09:00,2.2,��,3.9,���쐼,0,72,0,0,0,0
2023-12-18T05:28:00+09:00,2.2,��,3.9,���쐼,-0.2,72.3,0,0,0,0
2023-12-18T05:29:00+09:00,2.2,��,3.9,���쐼,-0.3,72.4,0,0,0,0
2023-12-18T05:30:00+09:00,2.3,��,3.9,���쐼,-0.3,72.5,0,0,0,0
2023-12-18T05:31:00+09:00,2.3,��,3.9,���쐼,-0.1,71.9,0,0,0,0
2023-12-18T05:32:00+09:00,2.4,��,3.9,���쐼,-0.2,72.1,0,0,0,0
2023-12-18T05:33:00+09:00,2.5,��,3.9,���쐼,-0.2,72.1,0,0,0,0
2023-12-18T05:34:00+09:00,2.4,��,3.9,���쐼,-0.1,72,0,0,0,0
2023-12-18T05:35:00+09:00,2.3,��,3.9,���k��,0,71.9,0,0,0,0
2023-12-18T05:36:00+09:00,2.2,��,3.9,���k��,0,72,0,0,0,0
2023-12-18T05:37:00+09:00,2.1,��,3.9,���k��,0,71.7,0,0,0,0
2023-12-18T05:38:00+09:00,2.1,��,3.8,��,0.1,70.8,0,0,0,0
2023-12-18T05:39:00+09:00,2,���쐼,3.8,��,0.1,70.1,0,0,0,0
2023-12-18T05:40:00+09:00,2,���쐼,3.8,��,0.1,69.8,0,0,0,0
2023-12-18T05:41:00+09:00,1.9,���쐼,3.4,��,0.2,69.7,0,0,0,0
2023-12-18T05:42:00+09:00,1.9,���쐼,4.4,���k��,0.1,70.2,0,0,0,0
2023-12-18T05:43:00+09:00,1.9,���쐼,4.4,���k��,0.1,70.2,0,0,0,0
2023-12-18T05:44:00+09:00,1.9,���쐼,4.4,���k��,0.2,71.3,0,0,0,0
2023-12-18T05:45:00+09:00,1.9,��,4.4,���k��,0.2,71.2,0,0,0,0
2023-12-18T05:46:00+09:00,2.1,��,4.4,���k��,0.3,71.1,0,0,0,0
2023-12-18T05:47:00+09:00,2.1,��,4.4,���k��,0.4,70.1,0,0,0,0
2023-12-18T05:48:00+09:00,2.1,��,4.4,���k��,0.4,69.8,0,0,0,0
2023-12-18T05:49:00+09:00,2.1,��,4.4,���k��,0.3,68.9,0,0,0,0
2023-12-18T05:50:00+09:00,2.2,��,4.4,���k��,0.2,67.8,0,0,0,0
2023-12-18T05:51:00+09:00,2.3,���k��,5.2,���k��,0.2,67.8,0,0,0,0
2023-12-18T05:52:00+09:00,2.4,���k��,5.2,���k��,0.2,67.1,0,0,0,0
2023-12-18T05:53:00+09:00,2.5,���k��,5.2,���k��,0.5,67.6,0,0,0,0
2023-12-18T05:54:00+09:00,2.6,���k��,5.2,���k��,0.3,66.3,0,0,0,0
2023-12-18T05:55:00+09:00,2.6,���k��,5.2,���k��,0.3,66.3,0,0,0,0
2023-12-18T05:56:00+09:00,2.5,���k��,5.2,���k��,0.2,66.5,0,0,0,0
2023-12-18T05:57:00+09:00,2.4,�k��,5.2,���k��,0.2,66.8,0,0,0,0
2023-12-18T05:58:00+09:00,2.2,�k��,5.2,���k��,0.2,67,0,0,0,0
2023-12-18T05:59:00+09:00,2,�k��,5.2,���k��,0.1,67.1,0,0,0,0
2023-12-18T06:00:00+09:00,1.9,�k��,5.2,���k��,-0.1,69,0,0,0,0
2023-12-18T06:01:00+09:00,1.6,�k�k��,4.7,���k��,-0.2,70,0,0,0,0
2023-12-18T06:02:00+09:00,1.4,�k,4,�k��,-0.3,70.6,0,0,0,0
2023-12-18T06:03:00+09:00,1.3,�k�k��,4,�k��,-0.3,70.9,0,0,0,0
2023-12-18T06:04:00+09:00,1.2,�k��,3.3,���k��,-0.3,71.5,0,0,0,0
2023-12-18T06:05:00+09:00,1.2,���k��,2.4,���k��,-0.4,71.8,0,0,0,0
2023-12-18T06:06:00+09:00,1.3,��,2.8,���쓌,-0.4,72.4,0,0,0,0
2023-12-18T06:07:00+09:00,1.4,��,2.8,���쓌,-0.4,72.4,0,0,0,0
2023-12-18T06:08:00+09:00,1.6,��,2.9,��,-0.5,72.7,0,0,0,0
2023-12-18T06:09:00+09:00,1.8,���쓌,3,���쓌,-0.5,73.2,0,0,0,0
2023-12-18T06:10:00+09:00,1.9,���쓌,3,���쓌,-0.5,73.3,0,0,0,0
2023-12-18T06:11:00+09:00,2,���쓌,3,���쓌,-0.6,74,0,0,0,0
2023-12-18T06:12:00+09:00,2.1,��,3,���쓌,-0.7,74.4,0,0,0,0
2023-12-18T06:13:00+09:00,2.1,��,3,���쓌,-0.7,74.7,0,0,0,0
2023-12-18T06:14:00+09:00,2,��,3,���쓌,-0.6,74.5,0,0,0,0
2023-12-18T06:15:00+09:00,2,��,3,���쓌,-0.7,74.9,0,0,0,0
2023-12-18T06:16:00+09:00,1.8,��,3,���쓌,-0.7,75,0,0,0,0
2023-12-18T06:17:00+09:00,1.7,��,3,���쓌,-0.5,74.1,0,0,0,0
2023-12-18T06:18:00+09:00,1.5,��,3,���쓌,-0.5,73.4,0,0,0,0
2023-12-18T06:19:00+09:00,1.3,��,2.8,���k��,-0.6,74.2,0,0,0,0
2023-12-18T06:20:00+09:00,1.2,��,2.8,���k��,-0.6,75,0,0,0,0
2023-12-18T06:21:00+09:00,1,��,2.4,���k��,-0.8,75.4,0,0,0,0
2023-12-18T06:22:00+09:00,0.8,���쓌,2.4,���k��,-0.8,76,0,0,0,0
2023-12-18T06:23:00+09:00,0.7,���쓌,1.7,��,-0.8,76.5,0,0,0,0
2023-12-18T06:24:00+09:00,0.6,���쓌,1.7,��,-0.7,76.3,0,0,0,0
2023-12-18T06:25:00+09:00,0.6,���쓌,1.7,��,-0.8,76.5,0,0,0,0
2023-12-18T06:26:00+09:00,0.5,���쓌,1.5,���k��,-0.9,76.8,0,0,0,0
2023-12-18T06:27:00+09:00,0.5,���쓌,1.4,�k��,-1,77.3,0,0,0,0
2023-12-18T06:28:00+09:00,0.6,���쓌,1.4,�k��,-1.1,77.8,0,0,0,0
2023-12-18T06:29:00+09:00,0.7,��,1.4,�k��,-1.1,78.4,0,0,0,0
2023-12-18T06:30:00+09:00,0.7,��,1.4,�k��,-1.2,78.7,0,0,0,0
2023-12-18T06:31:00+09:00,0.7,���k��,1.4,�k��,-1.2,79,0,0,0,0
2023-12-18T06:32:00+09:00,0.7,���k��,1.4,�k��,-1,79.1,0,0,0,0
2023-12-18T06:33:00+09:00,0.8,���k��,1.4,�k��,-0.9,78.7,0,0,0,0
2023-12-18T06:34:00+09:00,0.8,���k��,1.5,���k��,-0.9,78.2,0,0,0,0
2023-12-18T06:35:00+09:00,1,���k��,1.8,���k��,-1,78,0,0,0,0
2023-12-18T06:36:00+09:00,1,���k��,2.2,��,-1,78,0,0,0,0
2023-12-18T06:37:00+09:00,0.9,���k��,2.2,��,-1,78,0,0,0,0
2023-12-18T06:38:00+09:00,0.8,���k��,2.2,��,-1.1,78.2,0,0,0,0
2023-12-18T06:39:00+09:00,0.8,���k��,2.2,��,-1.1,78.8,0,0,0,0
2023-12-18T06:40:00+09:00,0.9,���k��,2.2,��,-1.1,78.7,0,0,0,0
2023-12-18T06:41:00+09:00,0.9,��,2.2,��,-1.1,78.4,0,0,0,0